| time (UTC) | temp F | wind direction | speed MPH | gust MPH | rain 1hr in | rain 24hr in | rain mn in | humidity % | barometer mb |
| 20260507050022 | 39 | 333 | 0.0 | 0.0 | 0.00 | 0.00 | 0.00 | 79 | 1016.7 |
| 20260507044521 | 39 | 331 | 0.0 | 0.0 | 0.00 | 0.00 | 0.00 | 81 | 1016.6 |
| 20260507043018 | 38 | 355 | 0.0 | 0.0 | 0.00 | 0.00 | 0.00 | 82 | 1016.6 |
| 20260507041517 | 38 | 355 | 0.0 | 1.0 | 0.00 | 0.00 | 0.00 | 81 | 1016.4 |
| 20260507040017 | 38 | 355 | 0.0 | 2.0 | 0.00 | 0.00 | 0.00 | 81 | 1016.5 |
| 20260507034529 | 38 | 335 | 1.0 | 4.0 | 0.00 | 0.00 | 0.00 | 80 | 1016.4 |
| 20260507033029 | 38 | 326 | 1.0 | 4.0 | 0.00 | 0.00 | 0.00 | 81 | 1016.4 |
| 20260507031514 | 37 | 327 | 0.0 | 0.0 | 0.00 | 0.00 | 0.00 | 83 | 1016.3 |
| 20260507030013 | 37 | 327 | 0.0 | 0.0 | 0.00 | 0.00 | 0.00 | 83 | 1016.4 |
| 20260507024513 | 37 | 327 | 0.0 | 2.0 | 0.00 | 0.00 | 0.00 | 82 | 1016.3 |
| 20260507023020 | 37 | 327 | 0.0 | 0.0 | 0.00 | 0.00 | 0.00 | 82 | 1016.2 |
| 20260507021510 | 37 | 327 | 0.0 | 3.0 | 0.00 | 0.00 | 0.00 | 82 | 1016.2 |
| 20260507020012 | 37 | 342 | 0.0 | 4.0 | 0.00 | 0.00 | 0.00 | 82 | 1016.2 |
| 20260507014512 | 38 | 321 | 2.0 | 5.0 | 0.00 | 0.00 | 0.00 | 80 | 1016.2 |
| 20260507013007 | 37 | 321 | 3.0 | 5.0 | 0.00 | 0.00 | 0.00 | 82 | 1016.0 |
| 20260507011505 | 37 | 329 | 3.0 | 5.0 | 0.00 | 0.00 | 0.00 | 80 | 1016.1 |
| 20260507010003 | 38 | 332 | 1.0 | 3.0 | 0.00 | 0.00 | 0.00 | 80 | 1016.1 |
| 20260507003059 | 38 | 325 | 3.0 | 5.0 | 0.00 | 0.00 | 0.00 | 79 | 1016.0 |
| 20260507001557 | 38 | 313 | 2.0 | 4.0 | 0.00 | 0.00 | 0.00 | 79 | 1016.0 |
| 20260507000054 | 38 | 325 | 0.0 | 2.0 | 0.00 | 0.00 | 0.00 | 78 | 1016.0 |
| 20260506234553 | 39 | 336 | 0.0 | 4.0 | 0.00 | 0.00 | 0.00 | 77 | 1016.0 |
| 20260506233055 | 40 | 5 | 0.0 | 2.0 | 0.00 | 0.00 | 0.00 | 77 | 1015.8 |
| 20260506231546 | 40 | 9 | 0.0 | 2.0 | 0.00 | 0.00 | 0.00 | 76 | 1015.9 |
| 20260506230044 | 40 | 346 | 0.0 | 4.0 | 0.00 | 0.00 | 0.00 | 75 | 1015.8 |
| 20260506224543 | 40 | 319 | 1.0 | 6.0 | 0.00 | 0.00 | 0.00 | 75 | 1015.7 |
| 20260506223042 | 41 | 313 | 2.0 | 6.0 | 0.00 | 0.00 | 0.00 | 75 | 1015.7 |
| 20260506221540 | 40 | 329 | 1.0 | 8.0 | 0.00 | 0.00 | 0.00 | 75 | 1015.7 |
| 20260506220039 | 40 | 332 | 3.0 | 6.0 | 0.00 | 0.00 | 0.00 | 74 | 1015.6 |
| 20260506214542 | 40 | 344 | 4.0 | 8.0 | 0.00 | 0.00 | 0.00 | 74 | 1015.6 |
| 20260506213033 | 41 | 338 | 1.0 | 6.0 | 0.00 | 0.00 | 0.00 | 73 | 1015.5 |
| 20260506211534 | 41 | 340 | 4.0 | 8.0 | 0.00 | 0.00 | 0.00 | 72 | 1015.5 |
| 20260506210032 | 41 | 328 | 3.0 | 8.0 | 0.00 | 0.00 | 0.00 | 71 | 1015.5 |
| 20260506204531 | 41 | 324 | 4.0 | 9.0 | 0.00 | 0.00 | 0.00 | 71 | 1015.5 |
| 20260506203031 | 41 | 333 | 5.0 | 9.0 | 0.00 | 0.00 | 0.00 | 70 | 1015.6 |
| 20260506201530 | 42 | 305 | 6.0 | 10.0 | 0.00 | 0.00 | 0.00 | 69 | 1015.5 |
| 20260506200030 | 42 | 295 | 4.0 | 9.0 | 0.00 | 0.00 | 0.00 | 68 | 1015.5 |
| 20260506194528 | 42 | 330 | 6.0 | 11.0 | 0.00 | 0.00 | 0.00 | 66 | 1015.5 |
| 20260506193027 | 42 | 287 | 5.0 | 11.0 | 0.00 | 0.00 | 0.00 | 65 | 1015.5 |
| 20260506191526 | 43 | 300 | 6.0 | 12.0 | 0.00 | 0.00 | 0.00 | 63 | 1015.3 |
| 20260506190027 | 43 | 324 | 6.0 | 12.0 | 0.00 | 0.00 | 0.00 | 64 | 1015.3 |
| 20260506184525 | 43 | 336 | 7.0 | 15.0 | 0.00 | 0.00 | 0.00 | 60 | 1015.2 |
| 20260506183025 | 44 | 331 | 6.0 | 13.0 | 0.00 | 0.00 | 0.00 | 59 | 1015.1 |
| 20260506181524 | 44 | 308 | 6.0 | 14.0 | 0.00 | 0.00 | 0.00 | 57 | 1015.0 |
| 20260506180023 | 44 | 321 | 7.0 | 15.0 | 0.00 | 0.00 | 0.00 | 57 | 1015.0 |
| 20260506174522 | 45 | 321 | 10.0 | 16.0 | 0.00 | 0.00 | 0.00 | 59 | 1015.0 |
| 20260506173022 | 45 | 329 | 9.0 | 16.0 | 0.00 | 0.00 | 0.00 | 63 | 1014.9 |
| 20260506171524 | 45 | 311 | 8.0 | 15.0 | 0.00 | 0.00 | 0.00 | 59 | 1014.8 |
| 20260506170023 | 45 | 304 | 11.0 | 18.0 | 0.00 | 0.00 | 0.00 | 57 | 1014.7 |
| 20260506164520 | 45 | 340 | 9.0 | 17.0 | 0.00 | 0.00 | 0.00 | 54 | 1014.7 |
| 20260506163020 | 46 | 326 | 10.0 | 19.0 | 0.00 | 0.00 | 0.00 | 57 | 1014.6 |
| 20260506161521 | 46 | 319 | 9.0 | 17.0 | 0.00 | 0.00 | 0.00 | 58 | 1014.6 |
| 20260506160018 | 46 | 331 | 7.0 | 16.0 | 0.00 | 0.00 | 0.00 | 60 | 1014.7 |
| 20260506154518 | 46 | 334 | 8.0 | 15.0 | 0.00 | 0.00 | 0.00 | 60 | 1014.7 |
| 20260506153018 | 46 | 341 | 12.0 | 19.0 | 0.00 | 0.00 | 0.00 | 53 | 1014.7 |
| 20260506151517 | 47 | 315 | 9.0 | 16.0 | 0.00 | 0.00 | 0.00 | 56 | 1014.8 |
| 20260506150016 | 46 | 323 | 13.0 | 20.0 | 0.00 | 0.00 | 0.00 | 56 | 1014.8 |
| 20260506144520 | 46 | 342 | 13.0 | 16.0 | 0.00 | 0.00 | 0.00 | 54 | 1015.0 |
| 20260506143014 | 47 | 338 | 9.0 | 15.0 | 0.00 | 0.00 | 0.00 | 56 | 1015.1 |
| 20260506141613 | 47 | 329 | 9.0 | 14.0 | 0.00 | 0.00 | 0.00 | 55 | 1015.0 |
| 20260506140010 | 46 | 323 | 8.0 | 17.0 | 0.00 | 0.00 | 0.00 | 58 | 1015.0 |
| 20260506134510 | 47 | 323 | 7.0 | 15.0 | 0.00 | 0.00 | 0.00 | 60 | 1015.0 |
| 20260506133008 | 47 | 288 | 7.0 | 12.0 | 0.00 | 0.00 | 0.00 | 60 | 1015.1 |
| 20260506131507 | 46 | 321 | 7.0 | 14.0 | 0.00 | 0.00 | 0.00 | 57 | 1015.2 |
| 20260506130005 | 46 | 341 | 7.0 | 14.0 | 0.00 | 0.00 | 0.00 | 60 | 1015.2 |
| 20260506124601 | 46 | 311 | 6.0 | 13.0 | 0.00 | 0.00 | 0.00 | 63 | 1015.2 |
| 20260506123059 | 44 | 254 | 9.0 | 14.0 | 0.00 | 0.00 | 0.00 | 62 | 1015.2 |
| 20260506121558 | 44 | 277 | 9.0 | 13.0 | 0.00 | 0.00 | 0.00 | 67 | 1015.3 |
| 20260506120156 | 43 | 297 | 10.0 | 13.0 | 0.00 | 0.00 | 0.00 | 69 | 1015.4 |
| 20260506114554 | 43 | 273 | 6.0 | 13.0 | 0.00 | 0.00 | 0.00 | 68 | 1015.4 |
| 20260506113053 | 43 | 255 | 6.0 | 10.0 | 0.00 | 0.00 | 0.00 | 66 | 1015.3 |
| 20260506111552 | 42 | 275 | 5.0 | 9.0 | 0.00 | 0.00 | 0.00 | 71 | 1015.2 |
| 20260506110050 | 42 | 283 | 5.0 | 9.0 | 0.00 | 0.00 | 0.00 | 72 | 1015.3 |
| 20260506104555 | 42 | 292 | 4.0 | 8.0 | 0.00 | 0.00 | 0.00 | 74 | 1015.3 |
| 20260506103049 | 41 | 253 | 7.0 | 11.0 | 0.00 | 0.00 | 0.00 | 76 | 1015.2 |
| 20260506101550 | 41 | 266 | 9.0 | 15.0 | 0.00 | 0.00 | 0.00 | 75 | 1015.3 |
| 20260506100044 | 42 | 277 | 11.0 | 18.0 | 0.00 | 0.00 | 0.00 | 74 | 1015.4 |
| 20260506094544 | 43 | 271 | 8.0 | 11.0 | 0.00 | 0.00 | 0.00 | 69 | 1015.2 |
| 20260506093045 | 43 | 258 | 6.0 | 10.0 | 0.00 | 0.00 | 0.00 | 68 | 1015.2 |
| 20260506091545 | 43 | 271 | 4.0 | 9.0 | 0.00 | 0.00 | 0.00 | 65 | 1015.3 |
| 20260506090041 | 43 | 299 | 2.0 | 8.0 | 0.00 | 0.00 | 0.00 | 67 | 1015.3 |
| 20260506084540 | 43 | 340 | 4.0 | 8.0 | 0.00 | 0.00 | 0.00 | 72 | 1015.2 |
| 20260506083042 | 43 | 331 | 3.0 | 8.0 | 0.00 | 0.00 | 0.00 | 70 | 1015.2 |
| 20260506081539 | 42 | 281 | 4.0 | 7.0 | 0.00 | 0.00 | 0.00 | 68 | 1015.2 |
| 20260506073036 | 43 | 196 | 2.0 | 4.0 | 0.00 | 0.00 | 0.00 | 66 | 1015.1 |
| 20260506071536 | 44 | 129 | 1.0 | 4.0 | 0.00 | 0.00 | 0.00 | 65 | 1014.9 |
| 20260506061528 | 43 | 92 | 1.0 | 2.0 | 0.00 | 0.00 | 0.00 | 69 | 1014.9 |